Content
SEND FEEDBACK

Daily
Averages
Monthly
Summary
United States of America

MELROSE, MASSACHUSETTS


Home > North America > United States > Massachusetts
Elevation: 170 feet     Latitude: 42 27N     Longitude: 071 05W

WEATHER
 
SELECT A DAY
Number of Records: 203,217;   Date Range: 1/1/95 - 9/22/14
 
SHARE

PRINT THIS DATA

[ ← Previous Day ]
WEATHER ALMANAC - OCTOBER 5, 2013
[ Next Day → ]
[ °C ]   °F
Weather ElementAverageHighLow
Temperature62.5 °F66.9 °F (12:54 pm)60.1 °F (1:54 am)
Dewpoint55.1 °F57 °F (3:54 pm)52 °F (12:54 pm)
Humidity77.2 %86 % (2:54 am)59 % (12:54 pm)
Barometer30.10 in30.13 in (10:54 pm)30.06 in (3:54 am)
Wind Speed4.6 mph9.2 mph (3:54 pm)
Weather ElementAverage
Visibility10 mi
Wind DirectionENE (60 °)

Weather ElementTotal
Precipitation---
Heating Degree Days1.5 (Base 65)
Growing Degree Days13.5 (Base 50)
Averaged from 23 records on October 5, 2013
WEATHER CONDITIONS BREAKOUT
WIND DIRECTION BREAKOUT
WEATHER BY HOUR - OCTOBER 5, 2013
[ °C ]   °F
Local TimeTemperatureDewpointHumidityBarometerVisibilityWind DirectionWind SpeedGust SpeedPrecipitationEventsConditions
1:54 AM60.1 °F55.0 °F83 %30.08 in10.0 miCalmScattered Clouds
2:54 AM60.1 °F55.9 °F86 %30.07 in10.0 miESE (120°)3.5 mphOvercast
3:54 AM61.0 °F55.0 °F81 %30.06 in10.0 miCalmOvercast
4:54 AM61.0 °F54.0 °F78 %30.07 in10.0 miCalmOvercast
5:54 AM61.0 °F55.0 °F81 %30.08 in10.0 miEast (100°)3.5 mphOvercast
6:54 AM61.0 °F55.9 °F83 %30.10 in10.0 miCalmMostly Cloudy
7:54 AM62.1 °F55.9 °F80 %30.11 in10.0 miNNE (20°)4.6 mphMostly Cloudy
8:54 AM62.1 °F55.9 °F80 %30.12 in10.0 miNNE (20°)5.8 mphMostly Cloudy
9:54 AM63.0 °F55.0 °F75 %30.12 in10.0 miEast (80°)4.6 mphMostly Cloudy
10:54 AM64.0 °F54.0 °F70 %30.11 in10.0 miEast (100°)3.5 mphOvercast
11:54 AM64.9 °F54.0 °F68 %30.10 in10.0 miSE (140°)5.8 mphMostly Cloudy
12:54 PM66.9 °F52.0 °F59 %30.09 in10.0 miEast (100°)8.1 mphScattered Clouds
1:54 PM66.9 °F53.1 °F61 %30.08 in10.0 miSE (140°)8.1 mphMostly Cloudy
2:54 PM66.0 °F52.0 °F60 %30.08 in10.0 miEast (90°)8.1 mphOvercast
3:54 PM64.9 °F57.0 °F75 %30.08 in10.0 miENE (70°)9.2 mphScattered Clouds
4:54 PM64.0 °F57.0 °F78 %30.09 in10.0 miENE (70°)8.1 mphMostly Cloudy
5:54 PM62.1 °F57.0 °F84 %30.09 in10.0 miENE (70°)9.2 mphMostly Cloudy
6:54 PM61.0 °F55.9 °F83 %30.10 in10.0 miEast (80°)8.1 mphOvercast
7:54 PM61.0 °F55.0 °F81 %30.11 in10.0 miNE (50°)5.8 mphOvercast
8:54 PM61.0 °F55.0 °F81 %30.12 in10.0 miNE (40°)4.6 mphOvercast
9:54 PM61.0 °F55.9 °F83 %30.12 in10.0 miEast (90°)4.6 mphOvercast
10:54 PM61.0 °F55.9 °F83 %30.13 in10.0 miCalmOvercast
11:54 PM61.0 °F55.9 °F83 %30.13 in10.0 miCalmOvercast
Hourly data recorded from KBOS, located miles away from Melrose, Massachusetts







STORIES FROM OUR PARTNERS